Location: St. Louis
(38.6270°N, 90.1994°W)
Time: 01:06:30
(UTC-06:00)

Courier 1B Rocket - Pass Details

Date: 03 December 2021
Orbit: 920 x 1202 km, 28.2° (Epoch: 16 January)

Event Time Altitude Azimuth Distance (km) Brightness Sun altitude
Rises 22:30:21 0° 231° (SW) 3,661 - -66.2°
Reaches altitude 10° 22:33:31 10° 219° (SW) 2,676 - -66.7°
Maximum altitude 22:38:34 25° 166° (SSE) 1,792 - -67.5°
Drops below altitude 10° 22:43:30 10° 114° (ESE) 2,607 - -68.2°
Sets 22:46:32 0° 101° (E) 3,547 - -68.6°
